Location: Newark
(54.0500°N, 12.8333°E)
Time: 19:15:47
(UTC+00:00)

Vanguard 1 Rocket - Visible Passes

Search period start: 19 January 2020 00:00
Search period end: 29 January 2020 00:00
Orbit: 650 x 4226 km, 34.3° (Epoch: 17 January)

Date Brightness Start Highest point End Pass type
(mag) Time Alt. Az. Time Alt. Az. Time Alt. Az.
19 Jan 12.2 17:06:05 10° W 17:19:58 20° SW 17:35:17 10° S visible
20 Jan 12.1 15:51:56 10° W 16:07:17 27° SSW 16:25:53 10° SSE visible
21 Jan 12.4 17:10:39 10° WSW 17:21:25 15° SW 17:33:15 10° SSW visible
22 Jan 12.3 15:55:24 10° WSW 16:08:57 22° SW 16:25:22 10° S visible
23 Jan 12.5 17:18:12 10° WSW 17:22:55 11° SW 17:27:52 10° SW visible
24 Jan 12.5 15:59:32 10° WSW 16:10:39 17° SW 16:23:53 10° S visible
26 Jan 12.6 16:05:15 10° WSW 16:12:25 13° SW 16:20:29 10° SSW visible
